Franklin, NC

8:53 PM EST on February 24, 2017 (GMT -0500)
Franklin

Weather History for K1A5 - April, 2014

Change the Weather History Date:

Saturday, April 12, 2014

  Actual Average (KTOC) Record (KTOC)
Temperature  
Mean Temperature 58 °F -  
Max Temperature 77 °F 73 °F 83 °F (2014)
Min Temperature 40 °F 47 °F 52 °F (2014)
Degree Days  
Heating Degree Days 6    
Growing Degree Days 8 (Base 50)    
Moisture  
Dew Point 42 °F    
Average Humidity 58    
Maximum Humidity 93    
Minimum Humidity 25    
Precipitation  
Precipitation 0.00 in - - ()
Sea Level Pressure  
Sea Level Pressure 30.20 in    
Wind  
Wind Speed 1 mph (SSE)    
Max Wind Speed 10 mph    
Max Gust Speed 18 mph    
Visibility 10 miles    
Events      
Averages and records for this station are not official NWS values.
T = Trace of Precipitation, MM = Missing Value Source: NWS Daily Summary

Daily Weather History Graph

Daily Weather History Graph

Search for Another Location

Airport or City:

Trip Planner

Search our weather history database for the weather conditions in past years. The results will help you decide how hot, cold, wet, or windy it might be!

Date:

Astronomy

Apr. 12, 2014 Rise Set
Actual Time 7:05 AM EDT 8:04 PM EDT
Civil Twilight 6:39 AM EDT 8:30 PM EDT
Nautical Twilight 6:08 AM EDT 9:00 PM EDT
Astronomical Twilight 5:36 AM EDT 9:32 PM EDT
Moon 5:46 PM EDT (4/12) 5:25 AM EDT (4/12)
Length of Visible Light 13h 50m
Length of Day
12h 58m
Waxing Gibbous, 93% of the Moon is Illuminated
Apr 12
Waxing Gibbous
Apr 15
Full
Apr 22
Last Quarter
Apr 29
New
May 6
First Quarter

Hourly Weather History & Observations

Time (EDT) Temp. Windchill Dew Point Humidity Pressure Visibility Wind Dir Wind Speed Gust Speed Precip Events Conditions
12:15 AM 45.5 °F - 40.1 °F 81% 30.24 in 10.0 mi Calm Calm - N/A   Mostly Cloudy
12:35 AM 45.3 °F - 39.7 °F 81% 30.23 in 10.0 mi Calm Calm - N/A   Scattered Clouds
12:55 AM 44.4 °F - 39.0 °F 81% 30.23 in 10.0 mi Calm Calm - N/A   Clear
1:15 AM 43.0 °F - 38.3 °F 84% 30.23 in 10.0 mi Calm Calm - N/A   Clear
1:35 AM 44.1 °F - 38.8 °F 82% 30.22 in 10.0 mi Calm Calm - N/A   Clear
1:55 AM 43.7 °F - 39.7 °F 86% 30.21 in 10.0 mi Calm Calm - N/A   Clear
2:15 AM 43.9 °F - 39.6 °F 85% 30.20 in 10.0 mi Calm Calm - N/A   Clear
2:35 AM 43.7 °F - 39.2 °F 84% 30.20 in 10.0 mi Calm Calm - N/A   Clear
2:55 AM 43.7 °F - 39.7 °F 86% 30.19 in 10.0 mi Calm Calm - N/A   Clear
3:15 AM 42.3 °F - 39.6 °F 90% 30.18 in 10.0 mi Calm Calm - N/A   Clear
3:35 AM 42.4 °F - 39.9 °F 91% 30.18 in 10.0 mi Calm Calm - N/A   Mostly Cloudy
3:55 AM 43.3 °F 41.7 °F 40.3 °F 89% 30.18 in 10.0 mi WSW 3.5 mph - N/A   Overcast
4:15 AM 45.0 °F - 40.6 °F 85% 30.20 in 10.0 mi Calm Calm - N/A   Overcast
4:35 AM 45.1 °F - 41.2 °F 86% 30.20 in 10.0 mi Calm Calm - N/A   Overcast
4:55 AM 46.0 °F - 41.9 °F 85% 30.21 in 10.0 mi Calm Calm - N/A   Overcast
5:15 AM 46.2 °F - 41.2 °F 83% 30.22 in 10.0 mi Calm Calm - N/A   Overcast
5:35 AM 46.4 °F - 42.1 °F 85% 30.22 in 10.0 mi Calm Calm - N/A   Overcast
5:55 AM 46.4 °F - 42.1 °F 85% 30.22 in 10.0 mi Calm Calm - N/A   Overcast
6:15 AM 45.9 °F - 41.5 °F 85% 30.23 in 10.0 mi Calm Calm - N/A   Overcast
6:35 AM 45.3 °F - 41.4 °F 86% 30.24 in 10.0 mi Calm Calm - N/A   Scattered Clouds
6:55 AM 42.8 °F - 39.9 °F 90% 30.25 in 10.0 mi Calm Calm - N/A   Clear
7:15 AM 42.1 °F - 40.1 °F 93% 30.25 in 10.0 mi Calm Calm - N/A   Clear
7:35 AM 40.6 °F - 38.8 °F 93% 30.26 in 10.0 mi Calm Calm - N/A   Clear
7:55 AM 42.8 °F - 41.0 °F 93% 30.26 in 10.0 mi Calm Calm - N/A   Clear
8:15 AM 45.0 °F - 41.7 °F 88% 30.27 in 10.0 mi Calm Calm - N/A   Clear
8:55 AM 50.2 °F - 43.3 °F 77% 30.27 in 10.0 mi Calm Calm - N/A   Clear
9:15 AM 54.0 °F - 44.2 °F 70% 30.27 in 10.0 mi Calm Calm - N/A   Clear
9:35 AM 56.8 °F - 45.3 °F 65% 30.27 in 10.0 mi Calm Calm - N/A   Clear
9:55 AM 59.5 °F - 44.8 °F 58% 30.26 in 10.0 mi Calm Calm - N/A   Clear
10:15 AM 61.3 °F - 45.9 °F 57% 30.26 in 10.0 mi Calm Calm - N/A   Clear
10:35 AM 63.3 °F - 46.6 °F 54% 30.26 in 10.0 mi Calm Calm - N/A   Clear
10:55 AM 65.8 °F - 46.8 °F 50% 30.26 in 10.0 mi Calm Calm - N/A   Clear
11:15 AM 67.3 °F - 45.9 °F 46% 30.26 in 10.0 mi Calm Calm - N/A   Clear
11:35 AM 68.9 °F - 45.1 °F 42% 30.26 in 10.0 mi Calm Calm - N/A   Clear
11:55 AM 69.3 °F - 45.0 °F 42% 30.25 in 10.0 mi East 3.5 mph - N/A   Clear
12:15 PM 70.9 °F - 44.4 °F 39% 30.24 in 10.0 mi Calm Calm - N/A   Clear
12:35 PM 71.4 °F - 44.8 °F 38% 30.23 in 10.0 mi Calm Calm - N/A   Clear
12:55 PM 73.2 °F - 41.4 °F 32% 30.22 in 10.0 mi South 5.8 mph - N/A   Clear
1:15 PM 74.5 °F - 41.9 °F 31% 30.21 in 10.0 mi East 4.6 mph - N/A   Clear
1:35 PM 74.7 °F - 40.8 °F 30% 30.20 in 10.0 mi Calm Calm - N/A   Clear
1:55 PM 75.2 °F - 39.7 °F 28% 30.19 in 10.0 mi South 4.6 mph - N/A   Clear
2:15 PM 76.8 °F - 41.2 °F 28% 30.18 in 10.0 mi SE 10.4 mph - N/A   Clear
2:35 PM 76.3 °F - 40.3 °F 27% 30.18 in 10.0 mi South 5.8 mph - N/A   Clear
2:55 PM 76.6 °F - 39.6 °F 26% 30.16 in 10.0 mi South 5.8 mph - N/A   Clear
3:15 PM 77.2 °F - 39.7 °F 26% 30.16 in 10.0 mi SSE 5.8 mph - N/A   Clear
3:35 PM 77.9 °F - 40.1 °F 26% 30.15 in 10.0 mi SE 5.8 mph - N/A   Clear
3:55 PM 77.9 °F - 39.4 °F 25% 30.14 in 10.0 mi ESE 4.6 mph - N/A   Clear
4:15 PM 77.4 °F - 38.8 °F 25% 30.14 in 10.0 mi South 6.9 mph 18.4 mph N/A   Clear
4:35 PM 77.4 °F - 38.8 °F 25% 30.13 in 10.0 mi SSE 4.6 mph - N/A   Clear
4:55 PM 77.5 °F - 40.6 °F 27% 30.13 in 10.0 mi SSE 6.9 mph - N/A   Clear
5:15 PM 77.2 °F - 39.6 °F 26% 30.13 in 10.0 mi SSE 6.9 mph 16.1 mph N/A   Clear
5:35 PM 76.6 °F - 39.2 °F 26% 30.13 in 10.0 mi SSE 6.9 mph - N/A   Clear
5:55 PM 76.3 °F - 38.5 °F 26% 30.13 in 10.0 mi South 5.8 mph 16.1 mph N/A   Clear
6:15 PM 76.1 °F - 39.2 °F 26% 30.13 in 10.0 mi SSE 6.9 mph 16.1 mph N/A   Clear
6:35 PM 75.4 °F - 39.6 °F 27% 30.13 in 10.0 mi SSE 9.2 mph - N/A   Clear
6:55 PM 73.4 °F - 40.6 °F 31% 30.13 in 10.0 mi SSE 3.5 mph - N/A   Clear
7:15 PM 73.0 °F - 41.0 °F 31% 30.13 in 10.0 mi SSE 4.6 mph - N/A   Clear
7:35 PM 72.5 °F - 41.4 °F 32% 30.14 in 10.0 mi South 4.6 mph - N/A   Clear
7:55 PM 71.4 °F - 41.5 °F 34% 30.15 in 10.0 mi SSW 4.6 mph - N/A   Clear
8:15 PM 70.3 °F - 42.3 °F 36% 30.16 in 10.0 mi South 4.6 mph - N/A   Clear
8:35 PM 69.8 °F - 42.8 °F 38% 30.16 in 10.0 mi Calm Calm - N/A   Clear
8:55 PM 68.2 °F - 43.9 °F 41% 30.17 in 10.0 mi Calm Calm - N/A   Clear
9:15 PM 68.7 °F - 43.5 °F 40% 30.17 in 10.0 mi Calm Calm - N/A   Clear
9:35 PM 61.7 °F - 46.8 °F 58% 30.18 in 10.0 mi Calm Calm - N/A   Clear
9:55 PM 59.7 °F - 46.9 °F 63% 30.18 in 10.0 mi Calm Calm - N/A   Clear
10:15 PM 58.3 °F - 46.6 °F 65% 30.18 in 10.0 mi Calm Calm - N/A   Clear
10:35 PM 57.2 °F - 47.1 °F 69% 30.18 in 10.0 mi Calm Calm - N/A   Clear
10:55 PM 55.4 °F - 47.3 °F 74% 30.18 in 10.0 mi Calm Calm - N/A   Clear
11:15 PM 53.8 °F - 47.5 °F 79% 30.18 in 10.0 mi Calm Calm - N/A   Clear
11:35 PM 52.7 °F - 46.0 °F 78% 30.18 in 10.0 mi Calm Calm - N/A   Clear
11:55 PM 52.0 °F - 46.0 °F 80% 30.18 in 10.0 mi Calm Calm - N/A   Clear